This is the latest recevied weather packets stored in our database for station/object N4AR. If no packets are shown the sender has not sent any weather packets the latest 10 day(s).
| Time | Temp. | Humidity | Pressure | Rain* | Wind** | Luminosity | Snow |
|---|---|---|---|---|---|---|---|
| 1777500784 | 21.11° C | 69% | 1008.3 hPa | 0 mm | - | 50 W/m² | - |
| 1777500481 | 21.11° C | 71% | 1008.4 hPa | 0 mm | - | 65 W/m² | - |
| 1777500177 | 21.11° C | 72% | 1008.3 hPa | 0 mm | - | 101 W/m² | - |
| 1777499875 | 21.11° C | 72% | 1008.1 hPa | 0 mm | - | 44 W/m² | - |
| 1777499570 | 21.11° C | 73% | 1008.4 hPa | 0 mm | - | 72 W/m² | - |
| 1777499269 | 21.11° C | 71% | 1008.7 hPa | 0 mm | - | 67 W/m² | - |
| 1777498966 | 21.11° C | 72% | 1008.7 hPa | 0 mm | - | 73 W/m² | - |
| 1777498662 | 21.11° C | 70% | 1008.9 hPa | 0 mm | - | 56 W/m² | - |
| 1777498358 | 21.11° C | 72% | 1008.8 hPa | 0 mm | - | 45 W/m² | - |
| 1777498056 | 21.11° C | 73% | 1008.8 hPa | 0 mm | - | 67 W/m² | - |
| 1777497752 | 21.11° C | 71% | 1008.8 hPa | 0 mm | - | 54 W/m² | - |
| 1777497449 | 21.11° C | 70% | 1008.8 hPa | 0 mm | - | 47 W/m² | - |
| 1777497145 | 21.11° C | 72% | 1009.1 hPa | 0 mm | - | 44 W/m² | - |
| 1777496842 | 21.11° C | 70% | 1009 hPa | 0 mm | - | 39 W/m² | - |
| 1777496539 | 21.11° C | 70% | 1009.1 hPa | 0 mm | - | 36 W/m² | - |
| 1777496235 | 21.11° C | 69% | 1009.2 hPa | 0 mm | - | 32 W/m² | - |
| 1777495931 | 21.11° C | 70% | 1009.1 hPa | 0 mm | - | 42 W/m² | - |
| 1777495627 | 21.11° C | 69% | 1009.4 hPa | 0 mm | - | 73 W/m² | - |
| 1777495322 | 21.11° C | 70% | 1009.4 hPa | 0 mm | - | 46 W/m² | - |
| 1777495021 | 21.67° C | 70% | 1009.5 hPa | 0 mm | - | 60 W/m² | - |
| 1777494718 | 21.67° C | 66% | 1009.4 hPa | 0 mm | - | 69 W/m² | - |
| 1777494415 | 21.67° C | 66% | 1009.6 hPa | 0 mm | - | 55 W/m² | - |
| 1777494111 | 21.67° C | 66% | 1009.5 hPa | 0 mm | - | 61 W/m² | - |
| 1777493809 | 22.22° C | 66% | 1009.5 hPa | 0 mm | - | 84 W/m² | - |
| 1777493507 | 22.22° C | 62% | 1009.5 hPa | 0 mm | - | 85 W/m² | - |
* Rain latest hour (hover to see other rain measurements)
** Current wind speed in m/s (hover to see current wind gust speed)